Tracking 30923 objects as of 1-Jul-2025
HD Live streaming from Space Station
objects crossing your sky now

TIANZHI 1

Track TIANZHI 1 now!
10-day predictions


NORAD ID: 43710
Int'l Code: 2018-094A
Perigee: 341.2 km
Apogee: 342.3 km
Inclination: 97.3 °
Period: 91.2 minutes
Semi major axis: 6712 km
RCS: Unknown
Launch date: November 19, 2018
Source: People's Republic of China (PRC)
Launch site: Jiuquan Satellite Launch Center, China (JSC)
Your satellite tracking list
Your tracking list is empty




NASA's NSSDC Master Catalog

Two Line Element Set (TLE):
1 43710U 18094A   25181.85129393  .00065533  00000-0  37709-3 0  9995
2 43710  97.3285 217.0647 0000816 311.3573  48.7624 15.78541212369573
Source of the keplerian elements: AFSPC